Showing default

IRIDE-MS2-HEO-10, 68982

Orbit data source: Space-Track

IRIDE-MS2-HEO-10, 68982 is an Italian payload satellite in SSO that was launched on Sun, 03 May 2026 UTC via an FALCON 9 launch vehicle from the Air Force Western Test Range (AFWTR). Payload-class satellites include a variety of spacecraft equipped with specific instruments for various scientific and technological missions. These include communications satellites like Starlink; space stations such as the ISS; scientific satellites like the Hubble; Earth observation satellites from companies like Planet Labs, Umbra, and HawkEye 360; GPS; miniature CubeSats for education and research; and military/defense satellites.

Loading next visibility...
Identifier
68982, 2026-100C
Orbit
SSO
Country
Flag of ITIT
Related business
Manufacturer
ArgoTec
Mission
Operational spacecraft
Bus & Motor
HAWK, Unknown motor
Mass
65 kg wet, 65 kg dry
Launch date (UTC)
2026-05-03 (1 month ago)
Launch vehicle
FALCON 9
Launch site
Air Force Western Test Range (AFWTR)
Object type
Payload
Rocket body
Debris
Shape & HBR
Unknown shape, 14.5 m
Radar Cross Section
Medium (>0.1 m² and <1 m²)

Expand to show TLE details & history
Last TLE update: 10 hours ago

TLE from 10 hours ago
0 IRIDE-MS2-HEO-10
1 68982U 26100C   26168.62673606  .00001024  00000-0  10875-3 0  9992
2 68982  97.7336  66.0267 0005071 138.0808 222.0799 14.91157606  6768
Epoch: 2026-06-17T15:02Z
TLE epoch observation values (Epoch: 2026-06-17T15:02:29.995Z)
Latitude
-0.00008°
Longitude
-65.47998°
Altitude
599.992 km
Speed
7.558 km/s
True Right ascension
04h 24m 06s
True Declination
0° 00' 00"
Sunlit
Object was in daylight at epoch
Visualization orbit readout
Latitude
Unknown
Longitude
Unknown
Altitude
Unknown
Speed
Unknown
Apparent Right ascension
Unknown
Apparent Declination
Unknown
Sunlit
N/A
Visualization observer readout
Local Sidereal Time
12:12:46
Azimuth
Unknown
Elevation
Unknown
Doppler factor
Unknown
Orbital elements
Apogee altitude
594.878 km
Perigee altitude
587.809 km
Semi-major axis
6,969.48 km
Eccentricity
0.00051
Inclination
97.7336°
RAAN
66.0267°
Arg. of periapsis
138.0808°
True anomaly
222.04098°
Mean anomaly
222.0799°
Eccentric anomaly
222.06044°
Mean motion
3.73029 °/min
Orbital period
96.51 mins
BSTAR
0.00010875
Loading maneuver chart data...
Computing Atmospheric mass density...
Loading historical data...
Loading historical data...
Loading historical data...
Loading historical data...
Loading historical data...
Loading historical data...
Loading historical data...

Documentation

Showing up to 5 results
|